Left ArrowRight Arrow

Hourly Observations for October 4, 2015

Temp ( °F °C ) Dew Point ( °F °C ) Humidity (%) Winds ( mph kmh ) Pressure ( in mb ) Visibility ( mi km ) Precip ( " mm )
12:53 am 00:53 Mostly Cloudy 77 25 73 22.8 88 88 NNE 9 15 29.76 1008 10 16 0.00 0.03
1:53 am 01:53 Partly Cloudy 77 25 73 22.8 88 88 NNE 10 17 29.74 1007 10 16 0.00 0.03
2:53 am 02:53 Clear 77 25 75 23.9 94 94 N 10 17 29.70 1006 10 16 0.00 0.03
3:53 am 03:53 Partly Cloudy 77 25 75 23.9 94 94 NE 9 15 29.69 1006 10 16 0.00 0.03
4:53 am 04:53 Mostly Cloudy 78 25.6 75 23.9 90 90 ENE 3 6 29.69 1005 10 16 0.00 0.03
5:53 am 05:53 Mostly Cloudy 79 26.1 72 22.2 79 79 ESE 8 13 29.71 1006 10 16 0.00 0.00
6:53 am 06:53 Mostly Cloudy 79 26.1 73 22.8 82 82 Calm 29.71 1006 10 16 0.00 0.00
7:53 am 07:53 Mostly Cloudy 83 28.3 73 22.8 72 72 SSE 5 7 29.73 1007 10 16 0.00 0.00
8:53 am 08:53 Mostly Cloudy 86 30 74 23.3 67 67 S 13 20 29.74 1007 10 16 0.00 0.00
9:53 am 09:53 Partly Cloudy 87 30.6 74 23.3 65 65 S 15 24 29.74 1007 10 16 0.00 0.00
10:53 am 10:53 Mostly Cloudy 89 31.7 73 22.8 59 59 S 14 22 29.74 1007 10 16 0.00 0.00
11:53 am 11:53 Mostly Cloudy 90 32.2 74 23.3 59 59 S 14 22 29.72 1007 10 16 0.00 0.00
12:53 pm 12:53 Partly Cloudy 89 31.7 75 23.9 63 63 S 13 20 29.70 1006 10 16 0.00 0.00
1:53 pm 13:53 Partly Cloudy 89 31.7 75 23.9 63 63 S 12 19 29.68 1005 10 16 0.00 0.00
2:53 pm 14:53 Partly Cloudy 89 31.7 75 23.9 63 63 S 9 15 29.67 1005 10 16 0.00 0.00
3:53 pm 15:53 Mostly Cloudy 88 31.1 75 23.9 66 66 SSW 8 13 29.68 1005 10 16 0.00 0.00
4:53 pm 16:53 Sunny 87 30.6 76 24.4 70 70 SSW 7 11 29.69 1005 10 16 0.00 0.00
5:53 pm 17:53 Sunny 86 30 76 24.4 72 72 S 7 11 29.71 1006 10 16 0.00 0.00
6:53 pm 18:53 Cloudy 85 29.4 75 23.9 72 72 S 9 15 29.73 1007 10 16 0.00 0.00
7:53 pm 19:53 Partly Cloudy 84 28.9 76 24.4 77 77 SSE 9 15 29.74 1007 10 16 0.00 0.00
8:53 pm 20:53 Clear 84 28.9 75 23.9 74 74 S 13 20 29.75 1008 10 16 0.00 0.00
9:53 pm 21:53 Clear 83 28.3 77 25 82 82 SSE 13 20 29.76 1008 10 16 0.00 0.00
10:53 pm 22:53 Clear 83 28.3 74 23.3 74 74 SE 10 17 29.75 1007 10 16 0.00 0.00
11:53 pm 23:53 Clear 82 27.8 73 22.8 74 74 ESE 7 11 29.74 1007 10 16 0.00 0.00

Powered by Vaisala Xweather